Retour au catalogue

CZ-4 DEB

ActifSSO
NORAD 26150·DEBRIS·🇨🇳 China

Lancé Oct 14, 1999 depuis Taiyuan Satellite Launch Center

Loading…

Prochains Passages (prochaines 24 heures)

TLE

FraisSource: Space-Track

Époque: Sep 14, 2026, 04:27 UTC

1 26150U 99057AL  26257.18545064  .00001214  00000-0  74515-3 0  9992
2 26150  99.0916 333.1896 0342438 199.3358 189.3773 13.82144451327693

Suivez CZ-4 DEB en temps réel avec AllMySat

Download on the App Store